Overview Statistics Trail Chart Weather Telemetry Raw packets
 

This is the latest recevied weather packets stored in our database for station/object WJ9H. If no packets are shown the sender has not sent any weather packets the latest 10 day(s).

<< 109 110 111 112 113 114 115 >>
Time Temp. Humidity Pressure Rain* Wind** Luminosity Snow
1787738937 18.89° C - 1012.9 hPa 0 mm - - -
1787738640 18.33° C - 1012.9 hPa 0 mm - - -
1787738337 18.33° C - 1012.9 hPa 0 mm - - -
1787738065 18.33° C - 1012.9 hPa 0 mm - - -
1787737977 18.33° C - 1012.9 hPa 0 mm - - -
1787737739 18.33° C - 1012.9 hPa 0 mm - - -
1787737383 17.78° C - 1012.9 hPa 0 mm - - -
1787737137 17.78° C - 1012.9 hPa 0 mm - - -
1787736883 17.78° C - 1012.9 hPa 0.25 mm - - -
1787736777 17.78° C - 1012.9 hPa 0 mm - - -
1787736537 17.78° C - 1012.9 hPa 0.25 mm - - -
1787736313 17.78° C - 1012.9 hPa 10.41 mm - - -
1787735937 17.78° C - 1012.9 hPa 10.41 mm - - -
1787735577 17.78° C - 1012.9 hPa 12.7 mm - - -
1787735339 17.78° C - 1012.9 hPa 12.7 mm - - -
1787734787 18.33° C - 1013.6 hPa 12.7 mm - - -
1787734377 17.78° C - 1013.6 hPa 12.7 mm - - -
1787734140 17.78° C - 1013.6 hPa 12.7 mm - - -
1787733538 18.33° C - 1013.6 hPa 12.7 mm - - -
1787733177 18.33° C - 1013.9 hPa 12.7 mm - - -
1787732836 18.89° C - 1013.6 hPa 0 mm - - -
1787732339 18.89° C - 1014.6 hPa 2.29 mm - - -
1787731976 18.89° C - 1013.9 hPa 0 mm - - -
1787731738 18.89° C - 1013.6 hPa 0 mm - - -
1787731139 18.89° C - 1013.9 hPa 0 mm - - -

* Rain latest hour (hover to see other rain measurements)
** Current wind speed in m/s (hover to see current wind gust speed)